Theta_e
311 311 311 311 310 308 308 309 309 306 304 304 304 304 306 308 308 308 308 308 309 309 309 309 308 308 319 325 324 320 319 322 326 331 324 324 325 327 328 331 329 330 334 334 346 348 345
311 311 311 310 309 306 307 308 308 305 304 303 303 303 303 305 307 307 308 308 309 309 309 309 309 310 323 323 322 326 335 330 330 324 321 323 325 327 328 330 329 336 341 336 347 350 351
309 310 310 310 308 306 306 307 306 304 303 303 303 303 303 303 304 305 307 309 309 309 310 309 310 315 321 322 321 322 330 330 329 325 322 322 324 326 327 329 333 343 346 347 349 351 352
308 308 308 309 308 306 306 305 304 304 303 302 302 302 302 303 303 304 307 309 308 311 313 312 313 324 322 321 320 320 323 323 324 324 321 321 322 326 328 329 337 343 346 347 351 351 352
310 310 309 309 309 307 306 306 305 304 303 302 302 302 302 302 303 304 306 308 312 315 314 314 324 324 323 321 323 321 321 324 321 320 321 321 322 326 327 330 339 342 339 341 350 348 352
309 309 309 309 309 309 307 306 305 305 303 302 302 302 302 302 303 304 308 308 318 319 322 324 325 326 324 326 326 323 323 323 323 322 322 322 324 325 328 332 336 337 340 338 343 349 350
307 308 308 308 308 308 308 308 306 306 303 302 302 302 302 302 303 306 308 314 321 326 326 326 326 324 323 325 324 325 323 321 323 324 323 323 324 325 328 334 335 336 337 337 340 346 350
307 307 307 307 307 306 305 305 306 306 304 302 302 302 302 301 303 307 310 315 311 309 316 317 318 323 324 323 326 328 324 327 325 324 324 323 323 326 329 331 334 335 337 337 342 345 347
307 306 306 306 306 304 302 303 303 304 303 302 302 302 301 301 304 309 313 310 308 309 316 319 318 318 320 323 325 327 327 329 327 323 323 324 324 327 327 329 332 336 337 337 338 343 345
306 305 305 306 306 304 302 302 303 303 302 302 302 301 301 299 308 308 314 309 308 309 321 324 321 322 320 322 323 325 327 329 327 323 322 323 325 325 326 329 333 338 336 336 339 340 337
306 305 305 305 305 305 303 303 303 302 302 301 301 301 301 303 306 310 309 308 308 312 326 323 322 322 324 323 323 324 327 328 324 322 322 323 324 324 326 329 332 336 336 337 338 338 336
305 305 305 304 304 303 302 303 303 303 301 300 300 301 301 308 307 308 307 307 311 323 326 323 323 324 325 324 324 326 326 329 327 322 323 323 324 325 326 329 331 332 333 336 336 336 337
305 305 305 304 304 302 302 302 302 302 301 300 300 300 303 306 308 307 307 311 318 324 324 323 324 325 325 324 325 327 327 330 329 325 323 322 323 324 326 328 330 331 335 337 337 337 337
304 305 304 304 303 303 302 302 301 302 301 300 300 303 306 305 307 307 309 314 320 322 324 323 323 324 326 325 325 326 327 329 329 325 324 323 322 324 324 328 330 331 335 336 340 339 337
305 305 304 304 303 303 303 302 301 302 301 300 301 305 306 307 308 309 312 316 319 321 321 322 323 324 325 326 325 326 328 328 330 328 324 324 324 324 325 325 330 331 336 335 336 337 338
304 304 304 304 303 303 303 302 302 302 301 300 304 305 307 308 309 310 311 313 317 316 317 320 324 324 325 324 326 326 328 327 328 329 326 324 325 324 324 325 326 332 332 334 334 339 341
304 304 303 303 302 302 303 303 302 302 301 302 306 307 308 309 309 313 312 312 313 315 315 318 321 323 324 324 325 327 326 327 327 330 328 325 324 325 324 325 326 326 330 333 334 335 337
304 303 303 302 302 302 302 303 302 302 301 305 306 308 306 308 313 312 313 313 310 312 314 315 316 318 323 324 324 326 328 326 327 328 329 327 325 326 325 325 325 327 329 332 334 337 333
303 303 303 303 303 302 303 302 303 302 302 304 307 307 305 307 309 312 314 314 313 313 313 314 316 317 320 322 323 324 325 323 324 328 330 329 326 327 326 327 327 326 326 328 330 332 335
303 303 303 303 303 303 302 302 303 302 302 304 307 306 308 311 310 311 312 313 313 314 314 314 315 316 318 318 321 323 322 320 322 327 330 331 328 330 329 328 327 327 326 326 328 331 330
303 303 303 303 302 303 303 302 302 302 302 304 306 307 307 308 311 310 311 311 313 314 315 317 316 315 317 319 320 321 321 320 320 322 326 330 332 332 331 329 327 327 327 328 329 329 330
303 303 303 303 303 302 302 302 302 302 303 305 306 306 307 307 306 307 308 312 313 314 315 316 318 317 318 318 319 320 320 321 323 322 326 326 331 332 332 330 330 329 328 328 328 328 329
303 303 303 302 303 303 303 303 302 303 303 305 305 305 307 306 306 306 306 308 311 310 313 315 315 315 319 319 319 320 321 322 323 325 324 326 328 332 331 330 329 331 331 330 330 329 329
302 302 302 302 302 303 303 303 302 302 302 306 305 305 307 307 306 306 305 306 307 307 310 311 312 314 317 313 316 319 320 320 321 323 324 326 329 331 331 330 332 330 329 329 329 329 330
302 302 302 302 302 303 302 303 303 301 302 304 305 304 305 307 305 305 305 305 306 306 307 308 309 311 313 314 320 323 323 321 320 321 321 323 326 326 330 332 332 330 331 330 330 331 330
302 302 303 302 302 303 303 303 303 302 302 303 305 305 304 306 305 305 305 306 307 308 308 308 310 310 311 314 320 323 323 323 324 322 322 323 324 326 328 330 332 330 331 332 331 334 332
301 302 302 303 302 303 303 303 303 303 302 303 304 304 304 306 304 306 306 306 306 306 308 308 310 311 313 316 321 323 323 322 324 325 325 325 326 324 325 327 329 329 331 332 336 333 333
300 301 301 303 304 302 302 302 302 303 303 302 303 304 304 304 304 304 305 306 306 306 307 308 308 312 314 317 323 322 322 322 324 325 327 328 328 327 325 327 329 333 338 336 335 336 343
300 301 303 302 302 302 301 301 301 302 301 302 303 303 304 305 304 303 304 304 304 305 306 306 308 309 311 319 322 324 327 325 324 326 325 330 326 326 326 327 332 329 340 337 344 345 345
Wind_Speed
18 19 20 21 22 23 23 23 24 25 26 28 28 27 26 25 26 27 27 26 23 22 21 20 18 12 4 7 10 3 6 9 19 20 21 16 14 12 9 1 4 7 4 4 8 10 11
18 19 19 19 20 23 23 22 23 25 27 28 29 28 27 26 26 28 28 26 25 24 21 19 15 5 5 12 4 2 4 16 22 23 21 19 10 11 7 3 5 3 4 10 11 12 10
19 18 19 19 20 22 23 23 24 25 27 29 30 30 29 28 28 29 29 27 27 24 19 14 7 5 9 13 4 4 8 12 17 24 18 20 12 11 4 6 4 5 12 12 12 11 9
20 20 20 20 20 22 23 24 25 26 28 30 32 32 31 30 30 30 28 27 24 14 8 2 8 4 7 4 7 10 9 7 12 18 17 17 10 12 9 3 7 10 11 11 11 11 5
21 21 22 21 21 22 23 24 26 28 29 30 32 33 34 33 33 32 28 21 11 3 2 9 4 6 7 5 9 14 14 12 16 13 12 10 12 12 9 12 10 10 12 10 11 12 8
19 20 20 21 22 23 24 25 27 29 30 31 32 34 36 35 35 32 20 12 3 1 1 3 4 5 7 7 8 13 15 14 11 13 11 12 10 11 12 13 13 16 14 13 10 13 11
19 19 21 21 20 22 24 26 28 29 31 32 33 35 38 36 36 20 19 3 5 6 9 8 1 4 3 7 6 12 19 14 12 15 15 17 15 19 21 18 14 8 15 14 10 12 14
21 21 21 21 21 23 24 26 26 27 30 32 34 37 40 37 29 14 7 3 5 5 9 14 18 16 12 1 7 13 19 14 15 17 18 14 21 21 18 18 13 13 14 13 8 10 12
21 21 21 22 23 24 26 26 27 27 29 31 33 36 40 39 14 10 5 6 5 8 7 8 15 14 14 19 13 17 21 20 17 19 21 19 18 19 17 16 17 17 17 16 11 11 12
21 21 22 22 23 25 27 28 27 28 29 32 33 34 38 39 4 13 1 3 11 4 5 9 9 7 14 13 15 19 24 19 13 21 19 21 16 20 19 22 20 18 15 15 11 10 10
21 21 22 22 23 24 27 27 27 29 31 33 34 35 37 20 15 7 5 11 11 4 6 8 9 10 12 17 11 25 23 20 17 14 16 17 19 20 23 23 21 16 14 13 14 14 7
21 21 22 22 23 25 26 26 27 30 32 34 35 36 37 9 9 12 12 14 4 6 8 8 9 12 15 18 10 19 23 19 15 15 17 16 6 18 22 21 19 8 12 13 11 13 11
22 21 22 22 23 25 25 25 27 29 33 35 36 39 23 9 5 10 14 6 6 8 4 10 10 14 17 14 18 16 26 25 16 18 16 20 13 14 17 22 16 18 18 10 11 11 13
21 22 22 23 23 24 25 26 26 28 32 36 39 27 13 10 9 10 7 7 13 5 13 2 6 13 16 14 20 19 24 24 26 21 15 19 18 21 17 21 17 25 21 14 17 14 15
21 21 21 22 23 23 23 24 25 27 31 34 35 16 8 4 5 5 6 14 7 13 8 6 8 13 16 14 10 21 24 26 27 24 17 20 23 27 16 22 22 23 24 22 22 20 10
22 21 21 21 22 22 22 23 23 24 28 31 23 15 4 9 5 8 8 20 16 6 7 8 15 12 15 18 15 20 21 25 26 27 22 10 14 15 22 19 21 24 19 18 13 21 21
21 21 22 22 22 22 22 22 22 23 27 23 13 6 5 5 3 6 12 19 17 16 10 8 9 15 12 10 18 18 15 15 27 26 24 18 12 17 18 24 20 13 16 15 20 20 19
21 21 21 20 21 22 20 19 20 21 24 13 7 5 2 6 6 7 11 11 6 15 20 16 7 11 14 13 13 16 20 16 16 22 27 23 14 12 21 21 24 24 22 24 16 21 12
20 20 20 20 20 19 18 17 17 18 17 15 6 5 3 5 6 10 11 10 12 18 17 17 17 12 8 12 9 14 13 2 5 21 24 22 13 14 18 13 12 20 25 24 23 20 23
20 20 20 20 20 20 18 17 15 14 13 9 5 4 4 4 3 7 7 13 12 11 16 20 19 18 17 15 11 4 10 5 7 19 7 15 20 22 18 21 16 19 20 22 22 18 20
20 20 20 20 19 18 18 17 14 11 10 6 3 1 4 2 2 7 7 8 10 11 10 10 14 21 19 18 18 15 11 6 6 5 11 16 21 22 24 22 19 21 22 20 24 24 23
20 20 21 19 17 17 18 16 13 9 7 9 4 4 0 8 8 10 5 10 7 3 7 8 8 12 14 18 16 16 16 12 8 10 14 9 11 18 21 21 20 19 19 21 26 25 24
21 21 19 18 17 17 16 16 12 7 5 5 2 6 5 5 6 7 7 6 6 7 6 6 5 13 7 3 12 15 14 13 6 5 8 7 10 11 17 21 21 23 31 29 25 21 20
22 21 20 19 18 17 16 14 11 7 8 6 4 5 3 8 7 7 6 10 14 13 12 13 13 11 6 17 17 16 17 18 15 13 8 4 7 8 13 15 25 21 24 26 25 23 22
24 23 23 22 20 18 16 15 13 10 9 11 6 4 2 7 8 9 12 11 13 13 16 16 13 14 11 13 9 11 11 18 24 20 17 11 9 9 12 17 14 24 4 17 20 26 25
25 26 26 24 22 21 19 16 14 12 10 11 12 9 3 3 7 10 9 6 8 10 11 14 3 11 9 8 10 18 18 16 16 20 23 19 15 11 11 22 29 18 13 14 16 19 19
27 28 28 26 24 22 20 18 17 15 12 11 10 12 6 3 4 14 9 11 10 7 8 9 4 5 7 10 12 13 17 20 19 22 18 21 18 21 17 17 14 14 16 13 19 9 17
27 28 29 30 26 21 18 16 16 18 16 11 10 13 13 5 11 14 17 15 11 8 8 4 7 3 6 10 8 12 13 16 17 21 24 19 17 19 18 22 25 1 5 16 13 11 5
27 27 28 24 22 15 14 16 14 16 16 14 10 10 11 9 10 16 17 18 25 22 12 9 11 4 4 4 3 6 7 8 13 17 21 18 16 15 18 17 4 23 18 10 3 3 2
Wind_Direction
13 12 11 10 7 7 5 3 3 4 3 0 359 355 349 344 341 338 334 330 324 320 315 310 311 307 313 241 256 227 277 178 181 188 197 200 211 231 249 242 236 259 18 152 141 136 124
9 8 9 8 7 6 4 1 1 1 360 358 357 355 351 345 340 334 331 326 319 314 307 303 301 267 254 261 128 116 176 170 183 193 204 208 222 236 297 240 282 345 98 139 143 131 145
8 7 6 5 5 5 6 4 1 359 358 356 355 354 349 345 340 335 329 324 316 312 302 293 270 185 251 255 189 168 143 175 185 196 206 208 230 230 202 185 166 147 131 133 143 150 151
0 0 1 1 359 359 0 1 0 358 357 356 354 352 347 344 340 334 327 321 320 316 306 283 165 195 261 198 203 218 200 181 192 196 218 203 228 251 243 127 178 193 184 168 156 167 147
353 353 353 352 352 352 353 354 355 355 354 354 353 351 346 343 340 333 326 322 317 337 64 126 166 235 259 186 211 206 189 169 159 169 197 202 220 231 181 209 193 196 192 194 161 197 154
349 348 347 346 346 347 348 349 350 352 352 351 351 350 346 343 340 334 328 323 247 117 143 237 246 237 223 200 142 166 176 165 167 162 161 190 202 211 219 208 207 190 239 183 180 186 198
350 348 348 347 344 342 342 343 345 348 349 348 349 348 346 342 340 333 335 288 214 190 211 251 153 260 151 153 164 180 165 167 177 185 187 194 202 206 201 214 236 236 215 201 190 158 202
352 354 352 351 350 348 343 341 341 344 346 346 347 347 346 342 341 351 356 15 52 346 296 237 245 247 248 148 185 169 181 186 180 196 203 180 218 204 207 212 229 232 229 222 136 172 214
350 351 349 348 348 349 348 345 344 343 344 345 346 346 345 342 348 9 19 68 354 328 260 246 220 227 212 211 223 180 189 205 198 205 198 211 203 208 209 199 219 228 226 222 218 176 220
344 346 345 345 342 344 346 346 345 342 343 342 344 345 345 343 333 340 255 324 337 275 268 176 199 209 193 197 218 215 199 191 208 209 202 229 213 196 200 205 207 217 226 237 181 206 227
344 343 343 342 340 340 343 342 342 342 341 340 340 340 341 343 300 299 334 320 326 227 273 119 143 140 158 190 155 190 193 203 204 200 195 204 202 202 206 203 205 233 171 217 205 220 249
340 340 340 341 341 340 339 340 338 338 338 337 337 335 335 340 278 276 312 313 257 229 238 170 149 178 168 208 192 156 186 208 224 201 211 223 219 213 210 207 199 192 191 207 218 236 228
334 333 334 336 337 338 338 337 336 335 335 334 333 332 322 276 292 306 310 265 215 238 102 182 188 180 196 179 192 183 186 194 192 190 197 214 196 209 225 205 197 185 175 186 213 216 244
331 332 331 331 332 333 336 336 334 334 333 333 331 335 310 258 279 296 272 216 230 211 221 83 212 191 197 181 202 195 192 197 208 206 191 195 205 192 202 209 192 208 202 230 217 232 236
329 328 329 331 332 332 334 334 333 333 334 335 333 325 294 270 289 231 228 217 216 228 249 230 193 208 204 191 210 199 205 208 202 205 229 200 219 187 200 208 210 205 222 228 247 251 273
330 329 327 325 330 331 333 335 335 334 335 337 324 312 277 302 229 211 229 234 231 245 322 258 237 208 209 197 197 195 198 213 212 205 218 198 221 184 196 206 222 224 204 216 231 245 242
327 326 324 323 326 324 327 331 336 335 337 341 307 296 70 51 202 219 231 230 242 243 254 266 250 245 236 216 204 198 214 214 210 196 216 217 230 182 203 207 201 199 225 222 240 225 244
326 326 324 326 325 326 324 326 333 337 341 342 301 277 41 324 246 233 241 235 326 266 245 245 267 271 265 229 237 232 217 212 207 197 203 215 210 218 206 218 224 219 217 214 226 224 249
329 328 330 327 327 331 329 328 330 337 344 330 303 286 281 262 256 233 236 271 256 265 248 250 231 232 239 253 245 239 219 3 242 217 203 199 224 212 230 185 213 233 218 224 226 238 228
330 330 327 325 324 324 326 326 326 332 333 321 291 288 177 233 309 297 306 269 261 263 260 266 263 253 248 244 241 238 221 178 225 226 99 223 216 225 214 217 195 211 224 225 236 227 234
333 333 328 326 328 326 324 320 321 319 321 296 240 16 359 291 166 314 273 297 276 271 266 301 241 246 247 236 240 219 242 200 179 106 198 213 221 227 232 254 215 204 210 206 222 229 230
333 329 333 326 322 325 326 320 315 306 308 262 293 300 267 284 280 270 221 252 266 300 286 247 286 359 289 255 244 229 236 236 216 182 193 213 222 231 226 229 244 235 230 220 218 228 238
332 331 328 329 325 321 320 320 309 284 265 268 262 272 269 275 267 270 266 248 285 316 260 287 2 323 275 316 337 307 307 303 319 300 181 216 218 206 224 225 231 241 230 227 233 230 233
329 328 324 320 321 320 318 314 313 276 257 271 272 290 285 273 268 278 289 284 278 277 278 287 302 290 334 328 301 259 254 254 251 235 245 228 219 217 224 213 223 249 227 226 240 236 233
325 322 317 312 307 304 304 306 299 285 263 249 245 177 242 270 283 279 267 285 286 273 260 269 283 286 311 299 263 222 210 230 235 234 226 220 252 221 222 223 233 246 202 226 220 234 232
327 326 319 312 305 298 291 285 285 280 266 252 247 224 213 268 255 284 269 272 297 297 280 253 288 299 280 262 239 227 215 211 221 227 226 223 222 246 212 236 234 234 236 213 232 240 229
326 327 326 320 306 299 290 279 269 265 263 244 249 223 218 249 248 267 255 288 304 254 273 282 341 285 236 252 242 226 226 218 221 211 209 204 212 221 227 246 250 248 244 192 222 237 222
328 326 329 324 318 306 293 286 272 259 249 233 247 226 217 257 265 247 250 262 250 251 270 339 296 191 241 251 252 233 237 224 223 226 210 202 199 215 222 228 232 222 183 217 232 235 261
331 334 331 333 334 324 315 309 288 259 246 224 246 222 227 240 272 284 270 259 256 260 271 305 287 314 333 283 337 301 267 245 223 219 232 205 210 218 209 219 308 208 232 214 269 282 252